Date,TemperatureHighF,TemperatureAvgF,TemperatureLowF,DewpointHighF,DewpointAvgF,DewpointLowF,HumidityHigh,HumidityAvg,HumidityLow,PressureMaxIn,PressureMinIn,WindSpeedMaxMPH,WindSpeedAvgMPH,GustSpeedMaxMPH,PrecipitationSumIn
2013-3-1,28.0,25.1,23.4,24.9,21.2,19.6,89,85,79,30.01,29.87,9,5,0,0.00
2013-3-2,27.7,23.0,17.4,21.8,19.1,16.1,96,85,78,29.98,29.91,6,3,0,0.00
2013-3-3,29.8,20.4,10.6,18.0,14.9,9.2,98,80,58,29.91,29.87,7,2,0,0.02
2013-3-4,38.1,19.5,5.0,17.7,12.4,2.5,98,77,38,30.00,29.91,5,1,0,0.04
2013-3-5,39.0,25.8,12.2,24.4,19.8,10.6,98,80,53,29.99,29.71,9,4,0,0.03
2013-3-6,38.7,31.5,24.6,29.8,27.1,22.6,96,84,70,30.08,29.74,7,3,0,0.00
2013-3-7,36.1,29.8,17.6,30.5,25.0,16.1,98,83,57,30.27,30.06,7,2,0,0.01
2013-3-8,49.3,28.1,12.4,28.8,21.2,11.0,98,78,44,30.37,30.26,5,1,0,0.00
2013-3-9,44.2,35.0,23.2,32.1,27.7,22.5,98,76,55,30.28,29.89,7,3,0,0.00
2013-3-10,59.2,50.5,39.4,45.4,38.2,31.8,75,63,51,29.88,29.64,9,4,0,0.00
2013-3-11,56.5,48.7,36.0,49.1,44.2,33.6,99,86,53,29.66,29.32,11,6,0,0.47
2013-3-12,37.4,33.2,27.9,34.1,29.1,23.9,96,85,69,29.75,29.53,12,5,0,0.08
2013-3-13,34.9,27.7,22.1,28.1,20.3,14.0,98,74,49,30.04,29.70,11,4,0,0.00
2013-3-14,43.5,28.8,17.1,22.2,18.0,13.7,92,65,42,30.11,29.94,8,3,0,0.01
2013-3-15,39.7,33.7,26.8,34.9,28.9,18.1,99,83,59,29.92,29.70,8,3,0,0.02
2013-3-16,33.8,28.0,21.7,32.2,25.5,20.4,99,91,74,29.88,29.64,6,2,0,0.00
2013-3-17,33.1,25.3,15.3,23.7,15.7,11.4,97,69,45,30.14,29.88,7,3,0,0.15
2013-3-18,33.4,28.0,18.1,33.0,24.7,12.9,99,87,76,30.05,29.40,13,5,0,0.03
2013-3-19,33.1,25.3,21.7,31.4,20.2,15.3,95,81,63,29.77,29.44,20,8,0,0.00
2013-3-20,30.0,22.9,15.4,18.5,14.7,9.7,84,71,50,29.79,29.73,11,5,0,0.00
2013-3-21,31.1,23.6,14.2,25.4,19.1,10.8,95,83,70,29.78,29.70,8,4,0,0.00
2013-3-22,42.3,29.4,24.1,24.4,20.5,17.4,85,70,48,29.88,29.78,7,3,0,0.00
2013-3-23,36.5,28.5,21.4,24.8,22.7,19.7,99,80,60,30.00,29.87,6,1,0,0.01
2013-3-24,36.9,27.8,18.3,27.4,22.8,17.0,98,82,57,29.90,29.52,14,3,0,0.00
2013-3-25,38.3,33.5,29.5,29.5,26.4,24.1,82,75,64,29.78,29.45,14,5,0,0.00
2013-3-26,44.6,35.6,31.1,32.2,29.5,27.0,89,79,55,29.98,29.79,8,3,0,0.00
2013-3-27,47.3,37.1,28.4,29.1,26.8,24.6,88,68,47,30.06,29.98,10,4,0,0.00
2013-3-28,54.1,38.5,28.2,30.4,25.9,23.5,85,62,38,30.14,30.06,10,3,0,0.00
2013-3-29,55.8,37.2,21.2,26.2,23.4,19.9,96,62,31,30.15,30.06,6,1,0,0.02
2013-3-30,57.4,39.8,20.1,30.7,23.3,18.9,97,59,23,30.08,29.78,10,2,0,0.01
2013-3-31,58.3,46.7,40.6,41.6,35.2,30.3,84,65,43,29.77,29.47,11,4,0,0.00